Content
SEND FEEDBACK

Daily
Averages
Monthly
Summary
Bosnia and Herzegovina

BANJA LUKA, BOSNIA AND HERZEGOVINA


Home > Europe > Bosnia and Herzegovina
Elevation: 512 feet     Latitude: 44 47N     Longitude: 017 13E

WEATHER
 
SELECT A DAY
Number of Records: 86,659;   Date Range: 2/6/00 - 12/27/14
 
SHARE

PRINT THIS DATA

[ ← Previous Day ]
WEATHER ALMANAC - FEBRUARY 13, 2013
[ Next Day → ]
[ °C ]   °F
Weather ElementAverageHighLow
Temperature32.9 °F33.8 °F (1:00 am)32 °F (3:00 am)
Dewpoint32.4 °F33.8 °F (1:00 am)32 °F (2:00 am)
Humidity98.1 %100 % (1:00 am)93 % (2:00 am)
Barometer29.89 in29.98 in (9:30 pm)29.83 in (1:00 am)
Wind Speed3.8 mph9.2 mph (6:30 pm)
Weather ElementAverage
Visibility1.9 mi
Wind DirectionWSW (252.5 °)

Weather ElementTotal
Precipitation---
Heating Degree Days32.1 (Base 65)
Averaged from 44 records on February 13, 2013
WEATHER CONDITIONS BREAKOUT
WIND DIRECTION BREAKOUT
WEATHER BY HOUR - FEBRUARY 13, 2013
[ °C ]   °F
Local TimeTemperatureDewpointHumidityBarometerVisibilityWind DirectionWind SpeedGust SpeedPrecipitationEventsConditions
1:00 AM33.8 °F33.8 °F100 %29.83 in1.2 miWest (280°)3.5 mphSnowLight Snow
2:00 AM33.8 °F32.0 °F93 %29.83 in0.9 miWNW (290°)2.3 mphSnowSnow
3:00 AM32.0 °F32.0 °F100 %29.83 in0.7 miSSE (150°)2.3 mphSnowSnow
3:30 AM32.0 °F32.0 °F100 %29.83 in0.7 miSouth (180°)2.3 mphSnowSnow
4:00 AM32.0 °F32.0 °F100 %29.83 in0.7 miSSE (160°)2.3 mphSnowSnow
4:30 AM32.0 °F32.0 °F100 %29.83 in0.7 miSouth (190°)3.5 mphSnowSnow
5:00 AM32.0 °F32.0 °F100 %29.83 in0.7 miSouth (180°)2.3 mphSnowSnow
5:30 AM32.0 °F32.0 °F100 %29.83 in0.7 miSouth (170°)2.3 mphSnowSnow
6:00 AM32.0 °F32.0 °F100 %29.83 in1.6 miSouth (170°)2.3 mphSnowLight Snow
6:30 AM32.0 °F32.0 °F100 %29.83 in2.5 miSE (140°)2.3 mphSnowLight Snow
7:00 AM32.0 °F32.0 °F100 %29.83 in3.1 miSouth (170°)2.3 mphOvercast
7:30 AM32.0 °F32.0 °F100 %29.86 in3.7 miSSW (210°)2.3 mphOvercast
8:00 AM32.0 °F32.0 °F100 %29.86 in5.0 miWest (260°)2.3 mphOvercast
8:30 AM32.0 °F32.0 °F100 %29.86 in1.9 miWest (260°)2.3 mphSnowLight Snow
9:00 AM32.0 °F32.0 °F100 %29.89 in1.9 miWSW (240°)4.6 mphSnowLight Snow
9:30 AM32.0 °F32.0 °F100 %29.89 in1.9 miWNW (300°)2.3 mphSnowLight Snow
10:00 AM32.0 °F32.0 °F100 %29.89 in1.2 miSE (130°)2.3 mphDrizzle
10:30 AM32.0 °F32.0 °F100 %29.89 in1.2 miWest (270°)2.3 mphDrizzle
11:00 AM33.8 °F33.8 °F100 %29.89 in1.2 miWNW (300°)2.3 mphRain-SnowRain
11:30 AM33.8 °F33.8 °F100 %29.89 in2.5 miNW (310°)2.3 mphRain-SnowRain
12:00 PM33.8 °F32.0 °F93 %29.89 in5.0 miWNW (300°)2.3 mphRain-SnowLight Rain
12:30 PM33.8 °F32.0 °F93 %29.89 in2.5 miWNW (300°)3.5 mphSnowSnow
1:00 PM33.8 °F33.8 °F100 %29.89 in1.6 miWNW (290°)2.3 mphSnowSnow
1:30 PM33.8 °F33.8 °F100 %29.89 in1.6 miNW (310°)2.3 mphSnowSnow
2:00 PM33.8 °F33.8 °F100 %29.89 in1.6 miWNW (300°)4.6 mphSnowSnow
2:30 PM33.8 °F33.8 °F100 %29.89 in1.6 miWNW (290°)6.9 mphSnowSnow
3:00 PM33.8 °F33.8 °F100 %29.89 in1.9 miWNW (300°)4.6 mphSnowSnow
3:30 PM33.8 °F33.8 °F100 %29.89 in1.9 miWNW (300°)4.6 mphSnowSnow
4:00 PM33.8 °F32.0 °F93 %29.89 in0.9 miWNW (300°)4.6 mphSnowSnow
4:30 PM33.8 °F32.0 °F93 %29.89 in1.2 miWNW (300°)6.9 mphSnowSnow
5:00 PM33.8 °F32.0 °F93 %29.89 in2.5 miWNW (290°)6.9 mphSnowSnow
5:30 PM33.8 °F32.0 °F93 %29.92 in5.0 miNW (310°)6.9 mphSnowLight Snow
6:00 PM33.8 °F32.0 °F93 %29.92 in1.6 miWNW (300°)6.9 mphSnowSnow
6:30 PM33.8 °F32.0 °F93 %29.92 in2.5 miNW (310°)9.2 mphSnowSnow
7:00 PM33.8 °F32.0 °F93 %29.92 in1.6 miWNW (300°)6.9 mphSnowSnow
7:30 PM32.0 °F32.0 °F100 %29.95 in1.9 miNW (310°)6.9 mphSnowSnow
8:00 PM33.8 °F32.0 °F93 %29.95 in1.9 miNW (310°)8.1 mphSnowSnow
8:30 PM33.8 °F32.0 °F93 %29.95 in1.9 miWNW (300°)4.6 mphSnowSnow
9:00 PM32.0 °F32.0 °F100 %29.95 in3.1 miWest (270°)3.5 mphSnowLight Snow
9:30 PM32.0 °F32.0 °F100 %29.98 in1.1 miSSW (210°)2.3 mphSnowSnow
10:00 PM32.0 °F32.0 °F100 %29.98 in0.9 miSSW (200°)3.5 mphSnowSnow
10:30 PM32.0 °F32.0 °F100 %29.98 in1.6 miSSW (210°)2.3 mphSnowSnow
11:00 PM32.0 °F32.0 °F100 %29.98 in1.6 miWSW (250°)2.3 mphSnowSnow
11:30 PM32.0 °F32.0 °F100 %29.98 in0.9 miSouth (190°)2.3 mphSnowSnow
Hourly data recorded from LQBK, located miles away from Banja Luka, Bosnia and Herzegovina







STORIES FROM OUR PARTNERS